C/2018 N2 ( ASASSN )

Japanese version
Home page
Updated on December 9, 2019

---------------------------------------------------------------------

* Profile

Discovery Date July 7, 2018
Magnitude 16.4 mag
Discoverer All-Sky Automated Survey for Supernovae (ASASSN) program

* Pictures

* Orbital Elements

Epoch 2019 Nov. 13.0 TT = JDT 2458800.5
T 2019 Nov. 10.96075 TT                                 Williams
q   3.1246419            (2000.0)            P               Q
z  -0.0000533      Peri.   24.39581     +0.78558567     -0.45744577
 +/-0.0000004      Node    25.25926     +0.27011711     -0.35227752
e   1.0001666      Incl.   77.53195     +0.55667935     +0.81648265
From 1841 observations 2018 July 11-2019 Nov. 5, mean residual 0".4.

* Finding Charts

* Magnitudes Graph

        m1 = 5.5 + 5 log d + 8.0 log r

---------------------------------------------------------------------

The orbital elements are published on M.P.E.C. 2019-V116.
The charts are made with StellaNavigator Ver.10 (AstroArts).
The magnitudes graphs are made with Comet for Windows.

---------------------------------------------------------------------

Copyright(C) Seiichi Yoshida (comet@aerith.net). All rights reserved.